QPF
0.00 0.00 0.00 0.00 0.00 0.00 0.00 0.00 0.00 0.00 0.00 0.00 0.00 0.00 0.00 0.00 0.00 0.00 0.00 0.00 0.00 0.00
0.00 0.00 0.00 0.00 0.00 0.00 0.00 0.00 0.00 0.00 0.00 0.00 0.00 0.00 0.00 0.00 0.00 0.00 0.00 0.00 0.00 0.00
0.00 0.00 0.00 0.00 0.00 0.00 0.00 0.00 0.00 0.00 0.00 0.00 0.00 0.00 0.00 0.00 0.00 0.00 0.00 0.00 0.00 0.00
0.00 0.00 0.00 0.00 0.00 0.00 0.00 0.00 0.00 0.00 0.00 0.00 0.00 0.00 0.00 0.00 0.00 0.00 0.00 0.00 0.00 0.00
0.00 0.00 0.00 0.00 0.00 0.00 0.00 0.00 0.00 0.00 0.00 0.00 0.00 0.00 0.00 0.00 0.00 0.00 0.00 0.00 0.00 0.00
0.00 0.00 0.00 0.00 0.00 0.00 0.00 0.00 0.00 0.00 0.00 0.00 0.00 0.00 0.00 0.00 0.00 0.00 0.00 0.00 0.00 0.00
0.00 0.00 0.00 0.00 0.00 0.00 0.00 0.00 0.00 0.00 0.00 0.00 0.00 0.00 0.00 0.00 0.00 0.00 0.00 0.00 0.00 0.00
0.00 0.00 0.00 0.00 0.00 0.00 0.00 0.00 0.00 0.00 0.00 0.00 0.00 0.00 0.00 0.00 0.00 0.00 0.00 0.00 0.00 0.00
0.00 0.00 0.00 0.00 0.00 0.00 0.00 0.00 0.00 0.00 0.00 0.00 0.00 0.00 0.00 0.00 0.00 0.00 0.00 0.00 0.00 0.00
0.00 0.00 0.00 0.00 0.00 0.00 0.00 0.00 0.00 0.00 0.00 0.00 0.00 0.00 0.00 0.00 0.00 0.00 0.00 0.00 0.00 0.00
0.00 0.00 0.00 0.00 0.00 0.00 0.00 0.00 0.00 0.00 0.00 0.00 0.00 0.00 0.00 0.00 0.00 0.00 0.00 0.00 0.00 0.00
0.00 0.00 0.00 0.00 0.00 0.00 0.00 0.00 0.00 0.00 0.00 0.00 0.00 0.00 0.00 0.00 0.00 0.00 0.00 0.00 0.00 0.00
0.00 0.00 0.00 0.00 0.00 0.00 0.00 0.00 0.00 0.00 0.00 0.00 0.00 0.00 0.00 0.00 0.00 0.00 0.00 0.00 0.00 0.00
0.00 0.00 0.00 0.00 0.00 0.00 0.00 0.00 0.00 0.00 0.00 0.00 0.00 0.00 0.00 0.00 0.00 0.00 0.00 0.00 0.00 0.00
MSLP
1019.97 1020.53 1021.04 1021.55 1022.01 1022.59 1023.20 1023.75 1024.19 1024.31 1024.42 1024.68 1024.86 1025.14 1025.27 1025.47 1025.59 1025.55 1025.64 1025.58 1025.61 1025.61
1019.90 1020.47 1021.11 1021.60 1021.91 1022.35 1022.56 1023.18 1023.88 1024.14 1024.51 1024.82 1025.15 1025.23 1025.48 1025.62 1025.63 1025.64 1025.62 1025.46 1025.40 1025.31
1019.92 1020.52 1021.11 1021.76 1022.46 1022.80 1023.14 1022.98 1023.41 1024.05 1024.54 1024.83 1025.19 1025.32 1025.40 1025.60 1025.47 1025.45 1025.46 1025.31 1025.26 1025.16
1020.17 1020.77 1021.28 1021.60 1022.18 1022.67 1023.63 1023.93 1023.93 1024.06 1024.38 1024.71 1025.03 1025.05 1025.22 1025.36 1025.38 1025.31 1025.25 1025.13 1024.92 1024.91
1020.44 1020.82 1021.30 1021.90 1022.57 1022.98 1023.37 1023.66 1023.94 1024.18 1024.43 1024.58 1024.71 1024.74 1024.80 1024.94 1025.02 1025.09 1024.99 1024.85 1024.79 1024.76
1020.47 1020.98 1021.51 1022.04 1022.82 1023.19 1023.29 1023.67 1023.67 1023.98 1024.18 1024.29 1024.35 1024.41 1024.38 1024.56 1024.85 1024.95 1025.12 1025.03 1024.79 1024.63
1020.41 1021.09 1021.51 1022.31 1022.88 1023.14 1023.35 1023.55 1023.73 1023.70 1023.85 1023.91 1023.89 1023.95 1024.14 1024.24 1024.43 1024.62 1024.56 1024.48 1024.45 1024.31
1020.39 1021.15 1022.06 1022.48 1023.10 1023.24 1023.39 1023.65 1023.58 1023.51 1023.51 1023.54 1023.70 1023.86 1024.14 1024.50 1024.62 1024.63 1024.64 1024.34 1024.24 1024.19
1020.75 1021.58 1022.09 1022.96 1023.26 1023.29 1023.54 1023.59 1023.61 1023.67 1023.63 1023.62 1023.66 1023.80 1023.93 1024.17 1024.53 1024.69 1024.63 1024.59 1024.31 1024.08
1020.57 1021.39 1022.28 1022.60 1022.83 1023.33 1023.39 1023.23 1023.22 1023.29 1023.31 1023.33 1023.54 1023.96 1023.81 1023.85 1024.07 1024.30 1024.26 1024.29 1023.91 1023.92
1021.21 1021.60 1022.14 1022.55 1022.98 1022.95 1023.05 1023.09 1022.96 1022.89 1022.83 1022.94 1023.02 1023.25 1023.58 1023.78 1023.96 1024.11 1024.17 1024.13 1023.81 1023.51
1022.05 1022.29 1022.61 1022.85 1023.02 1022.92 1022.79 1022.67 1022.68 1022.56 1022.55 1022.72 1022.90 1022.99 1023.31 1023.50 1023.62 1023.77 1023.74 1023.85 1023.47 1023.25
1022.25 1022.58 1022.69 1022.64 1022.52 1022.64 1022.61 1022.51 1022.43 1022.40 1022.43 1022.50 1022.59 1022.71 1022.91 1023.14 1023.27 1023.51 1023.44 1023.41 1023.17 1023.27
1022.27 1022.14 1022.00 1022.26 1022.26 1022.13 1022.16 1022.21 1022.22 1022.22 1022.19 1022.20 1022.25 1022.23 1022.29 1022.48 1022.68 1022.95 1023.07 1023.07 1022.98 1023.19
Thickness
5575 5564 5554 5545 5535 5525 5514 5504 5495 5487 5481 5471 5462 5453 5445 5436 5427 5419 5410 5401 5389 5379
5565 5556 5544 5535 5527 5518 5510 5498 5486 5477 5468 5458 5448 5440 5429 5421 5412 5403 5394 5386 5375 5364
5557 5546 5536 5525 5513 5504 5494 5487 5477 5465 5454 5445 5434 5424 5417 5408 5399 5389 5378 5370 5358 5346
5542 5532 5522 5514 5503 5492 5478 5467 5461 5453 5442 5433 5423 5413 5404 5394 5385 5375 5364 5353 5343 5331
5528 5519 5510 5499 5487 5477 5469 5458 5449 5439 5428 5420 5412 5402 5392 5381 5371 5360 5349 5339 5329 5317
5517 5508 5496 5486 5473 5464 5457 5446 5437 5427 5416 5408 5398 5388 5379 5369 5356 5345 5333 5321 5312 5302
5507 5494 5484 5470 5459 5450 5441 5432 5423 5414 5405 5396 5386 5376 5363 5354 5344 5332 5320 5308 5296 5285
5493 5481 5466 5455 5443 5435 5426 5417 5408 5401 5392 5382 5371 5360 5345 5332 5322 5313 5302 5292 5279 5266
5478 5464 5452 5438 5429 5421 5411 5402 5394 5383 5374 5364 5354 5345 5332 5320 5305 5294 5284 5272 5262 5252
5466 5453 5438 5428 5419 5407 5399 5392 5382 5370 5359 5350 5340 5326 5316 5305 5294 5282 5271 5258 5251 5243
5450 5439 5427 5415 5404 5396 5386 5377 5367 5357 5348 5338 5328 5317 5303 5291 5280 5269 5257 5246 5240 5236
5429 5420 5410 5399 5389 5380 5372 5363 5354 5345 5336 5323 5313 5301 5288 5278 5268 5258 5247 5237 5232 5229
5416 5406 5397 5386 5377 5367 5358 5349 5338 5329 5318 5305 5295 5286 5276 5266 5256 5247 5238 5229 5226 5218
5402 5395 5387 5374 5364 5355 5344 5334 5322 5312 5304 5294 5284 5276 5267 5256 5247 5238 5229 5222 5217 5210